[[{"header":{"parameterUnit":"m.s-1","parameterCategory":1,"la1":30.2992,"la2":30.254,"lo1":-89.0895,"lo2":-89.0443,"dy":0.0025,"dx":0.0025,"nx":19,"ny":19,"refTime":"2026-03-26T21:00:00:Z","depth":0,"parameterNumber":2,"parameterNumberName":"U-component_of_WINDS"},"data":[0,0,0,2.3637,2.364,2.3746,2.3746,2.3889,2.389,0,0,0,0,0,0,0,0,0,0,0,2.361,2.3611,2.3637,2.364,2.3746,2.3746,2.3889,2.389,0,0,0,0,0,0,0,0,0,0,0,2.3609,2.361,2.3612,2.364,2.3746,2.3746,2.3888,2.3806,0,0,0,0,0,0,0,0,0,0,2.3702,2.368,2.361,2.3612,2.3641,2.3746,2.3746,2.3802,2.3811,2.3844,0,2.3874,0,2.3884,2.39,2.3901,0,0,0,2.3637,2.3672,2.3697,2.3612,2.3642,2.3745,2.3697,2.3807,2.3817,2.3856,2.3876,2.3881,2.3887,2.3901,2.3902,2.4098,2.4099,0,0,2.3631,2.3631,2.369,2.3704,2.3688,2.3694,2.3701,2.3813,2.3835,2.3876,2.3884,2.3889,2.3902,2.3903,2.4097,2.4098,0,0,0,2.3616,2.3627,2.3649,2.3699,2.3717,2.3697,2.3705,2.383,2.3837,2.3885,2.3891,2.3903,2.3905,2.4096,2.4098,2.4149,0,0,0,2.3612,2.3618,2.3647,2.3648,2.3715,2.3775,2.3719,2.3829,2.3842,2.389,2.3903,2.3906,2.4095,2.4097,2.4145,2.4173,0,0,0,2.3601,2.3617,2.3634,2.3648,2.3693,2.3773,2.3786,2.3832,2.3845,2.3901,2.3907,2.4094,2.4097,2.4141,2.4167,2.4224,0,0,0,2.359,2.3678,2.3634,2.3735,2.3692,2.3803,2.3786,2.3869,2.3923,2.3904,2.4095,2.4097,2.414,2.4164,2.4221,2.4272,2.4293,0,0,2.3701,2.3692,2.3751,2.3715,2.3834,2.3787,2.3914,2.3964,2.397,2.4055,2.406,2.4146,2.4167,2.4224,2.4414,2.4431,0,0,0,2.3786,2.3829,2.3861,2.3912,2.3951,2.3988,2.4018,2.4036,2.4109,2.4013,2.4182,2.4195,2.4228,2.4252,2.4267,2.4295,2.4109,2.4109,2.4108,2.3945,2.3946,2.4045,2.4059,2.4109,2.4139,2.4179,2.4209,2.4197,2.4237,2.4262,2.4377,2.4406,2.4417,2.4446,2.429,2.429,2.429,2.429,2.4108,2.4169,2.415,2.4238,2.4239,2.4314,2.4346,2.4335,2.4404,2.4359,2.4388,2.4338,2.4436,2.4461,2.4294,2.4293,2.4293,2.4293,2.4292,2.4212,2.4241,2.4262,2.4335,2.4391,2.4403,2.447,2.4469,2.4469,2.4498,2.4524,2.4523,2.4522,2.451,2.4511,2.4511,2.4512,2.4512,2.4512,2.4312,2.4333,2.439,2.4438,2.4471,2.4513,2.4543,2.4575,2.461,2.4604,2.4604,2.4588,2.4445,2.4409,2.4518,2.4517,2.4516,2.4516,2.4515,2.4477,2.4439,2.4527,2.4559,2.4616,2.4671,2.4669,2.4734,2.476,2.4793,2.477,2.4664,2.4655,2.4643,2.4613,2.477,2.477,2.477,2.477,2.4565,2.4559,2.4648,2.4699,2.4749,2.4756,2.4854,2.4878,2.4898,2.4914,2.4891,2.4851,2.484,2.4837,2.4821,2.4793,2.4992,2.4992,2.4992,2.4666,2.4665,2.4749,2.4767,2.4811,2.4849,2.4942,2.5001,2.5015,2.5001,2.4926,2.4917,2.4853,2.4832,2.4816,2.4792,2.4741,0,0]},{"header":{"parameterUnit":"m.s-1","parameterCategory":1,"la1":30.2992,"la2":30.254,"lo1":-89.0895,"lo2":-89.0443,"dy":0.0025,"dx":0.0025,"nx":19,"ny":19,"refTime":"2026-03-26T21:00:00:Z","depth":0,"parameterNumber":3,"parameterNumberName":"V-component_of_WINDS"},"data":[0,0,0,2.6529,2.6531,2.661,2.661,2.6709,2.671,0,0,0,0,0,0,0,0,0,0,0,2.6507,2.6508,2.6529,2.6531,2.661,2.661,2.6709,2.671,0,0,0,0,0,0,0,0,0,0,0,2.6507,2.6508,2.6509,2.6531,2.661,2.661,2.6709,2.6649,0,0,0,0,0,0,0,0,0,0,2.6573,2.6555,2.6508,2.6509,2.6532,2.661,2.661,2.6647,2.6653,2.6674,0,2.6694,0,2.6704,2.6717,2.6717,0,0,0,2.6529,2.6549,2.6569,2.6509,2.6533,2.6609,2.6574,2.665,2.6658,2.6682,2.6696,2.6699,2.6706,2.6718,2.6718,2.6847,2.6848,0,0,2.6525,2.6522,2.6564,2.6574,2.6565,2.6571,2.6576,2.6655,2.6668,2.6696,2.6702,2.6707,2.6718,2.6719,2.6847,2.6848,0,0,0,2.6514,2.6519,2.6537,2.657,2.6585,2.6574,2.6579,2.6665,2.6671,2.6703,2.6708,2.6719,2.672,2.6846,2.6847,2.6879,0,0,0,2.6511,2.6512,2.6535,2.6534,2.6583,2.6626,2.6588,2.6666,2.6675,2.6708,2.6719,2.6721,2.6845,2.6847,2.6876,2.6894,0,0,0,2.6502,2.6511,2.6523,2.6533,2.6567,2.6625,2.6636,2.6668,2.6678,2.6717,2.6721,2.6845,2.6846,2.6874,2.6891,2.6928,0,0,0,2.649,2.6549,2.6523,2.6591,2.6567,2.6645,2.6635,2.6693,2.673,2.6719,2.6845,2.6847,2.6873,2.6888,2.6925,2.6959,2.6973,0,0,2.6562,2.6557,2.6598,2.6577,2.6659,2.6633,2.6718,2.6755,2.676,2.6817,2.6821,2.6877,2.689,2.6927,2.705,2.706,0,0,0,2.6619,2.6648,2.6671,2.6707,2.6738,2.6765,2.6789,2.6802,2.6851,2.679,2.69,2.6908,2.693,2.6946,2.6956,2.6974,2.6854,2.6854,2.6854,2.6717,2.6722,2.6789,2.6804,2.6839,2.6864,2.6892,2.6914,2.6908,2.6934,2.6951,2.7025,2.7044,2.7051,2.707,2.6969,2.6969,2.6969,2.6969,2.6824,2.6865,2.6857,2.6919,2.6924,2.6975,2.7,2.6994,2.7041,2.7012,2.7032,2.7,2.7062,2.708,2.6971,2.6971,2.6971,2.697,2.697,2.6888,2.6909,2.6926,2.698,2.702,2.7032,2.7078,2.708,2.7082,2.7101,2.7119,2.7119,2.7118,2.7109,2.711,2.711,2.711,2.711,2.711,2.6949,2.6967,2.7007,2.7045,2.7068,2.71,2.7124,2.7147,2.7172,2.7169,2.717,2.7161,2.7068,2.7045,2.7114,2.7114,2.7113,2.7113,2.7113,2.7056,2.7033,2.7095,2.7119,2.7163,2.7202,2.7204,2.725,2.7269,2.7291,2.7278,2.7209,2.7203,2.7196,2.7177,2.7277,2.7277,2.7277,2.7277,2.7111,2.7109,2.7173,2.7211,2.7249,2.7257,2.7325,2.7344,2.7359,2.7371,2.7356,2.7331,2.7323,2.7322,2.7312,2.7294,2.7422,2.7422,2.7422,2.7178,2.7179,2.7238,2.7255,2.7289,2.7318,2.7382,2.7424,2.7436,2.7428,2.738,2.7374,2.7333,2.7319,2.731,2.7294,2.7262,0,0]}]]